• Processing (Info)

  • MPEC 2007-T27 : 2007 TL5

    The following Minor Planet Electronic Circular may be linked-to from your own Web pages, but must not otherwise be redistributed electronically.

    A form allowing access to any MPEC is at the bottom of this page.


    Read MPEC 2007-T26 Read MPEC 2007-T28


    M.P.E.C. 2007-T27                                Issued 2007 Oct. 8, 16:38 UT
    
         The Minor Planet Electronic Circulars contain information on unusual
             minor planets and routine data on comets.  They are published
       on behalf of Commission 20 of the International Astronomical Union by the
              Minor Planet Center, Smithsonian Astrophysical Observatory,
                              Cambridge, MA 02138, U.S.A.
    
                 Prepared using the Tamkin Foundation Computer Network
    
                                  MPC@CFA.HARVARD.EDU
              URL http://www.cfa.harvard.edu/iau/mpc.html  ISSN 1523-6714
    
                                       2007 TL5
    
    Observations:
         K07T05L* C2007 10 07.31804 00 40 24.63 +10 26 38.2          20.1 V ET027G96
         K07T05L  C2007 10 07.32345 00 40 17.43 +10 26 31.6          20.3 V ET027G96
         K07T05L  C2007 10 07.32888 00 40 10.27 +10 26 25.6          20.2 V ET027G96
         K07T05L  C2007 10 07.33433 00 40 03.03 +10 26 19.2          20.0 V ET027G96
         K07T05L  C2007 10 07.38644 00 38 54.85 +10 25 15.6          20.5 V ET027G96
         K07T05L  C2007 10 07.38701 00 38 54.06 +10 25 15.1          20.2 V ET027G96
         K07T05L  C2007 10 07.38756 00 38 53.37 +10 25 14.5          19.9 V ET027G96
         K07T05L  C2007 10 07.38805 00 38 52.80 +10 25 13.7          20.7 V ET027G96
         K07T05L  C2007 10 07.39373 00 38 45.45 +10 25 06.9          18.7 V ET027G96
         K07T05L  C2007 10 07.39421 00 38 44.80 +10 25 06.0          20.1 V ET027G96
         K07T05L  C2007 10 07.39468 00 38 44.16 +10 25 05.5          20.6 V ET027G96
         K07T05L  C2007 10 07.42285 00 38 08.01 +10 24 30.2          20.5 V ET027G96
         K07T05L  C2007 10 07.42333 00 38 07.40 +10 24 29.7          20.6 V ET027G96
         K07T05L  C2007 10 07.42380 00 38 06.72 +10 24 29.0          20.8 V ET027G96
         K07T05L  C2007 10 07.42429 00 38 06.18 +10 24 28.6          20.2 V ET027G96
         K07T05L FC2007 10 07.90145 00 28 59.43 +10 14 52.6                 ET027246
         K07T05L FC2007 10 07.90262 00 28 58.15 +10 14 50.4                 ET027246
         K07T05L  C2007 10 07.90688 00 28 53.35 +10 14 48.2          21.2 V ET027B21
         K07T05L  C2007 10 07.91614 00 28 43.06 +10 14 37.6          21.6 V ET027B21
         K07T05L  C2007 10 07.91807 00 28 40.95 +10 14 35.5          21.7 V ET027B21
         K07T05L  C2007 10 07.93944 00 28 17.56 +10 14 10.4          20.1 R ET027024
         K07T05L  C2007 10 07.94602 00 28 10.21 +10 14 02.5                 ET027024
         K07T05L  C2007 10 07.95328 00 28 02.23 +10 13 53.5                 ET027024
         K07T05L  C2007 10 08.25040 00 22 57.90 +10 08 54.8          20.6 R ET027651
         K07T05L  C2007 10 08.25340 00 22 54.84 +10 08 51.1          20.6 R ET027651
         K07T05L  C2007 10 08.25639 00 22 51.78 +10 08 47.7          20.6 R ET027651
    
    Observer details:
    024 Heidelberg-Konigstuhl.  Observer F. Hormuth.  0.70-m reflector + CCD.
    246 Klet Observatory-KLENOT.  Observers J. Ticha, M. Tichy.  Measurer M. Tichy.
        1.06-m KLENOT Telescope + CCD.
    651 Grasslands Observatory, Tucson.  Observer J. E. McGaha.  0.62-m f/5.1
        reflector + CCD.
    B21 Gaisberg Observatory, Schaerding.  Observer R. Gierlinger.  0.6-m f/3.3
        Newtonian reflector + CCD.
    G96 Mt. Lemmon Survey.  Observer A. R. Gibbs.  Measurers E. C. Beshore,
        A. Boattini, G. J. Garradd, A. R. Gibbs, A. D. Grauer, R. E. Hill,
        R. A. Kowalski, S. M. Larson, R. H. McNaught.  1.5-m reflector + CCD.
    
    Orbital elements:
    2007 TL5                                                 Earth MOID = 0.0126 AU
    Epoch 2007 Oct. 27.0 TT = JDT 2454400.5                 MPC
    M 104.24745              (2000.0)            P               Q
    n   1.21803271     Peri.  219.01624     -0.63081756     +0.77449328
    a   0.8683539      Node    12.12279     -0.64365719     -0.48832848
    e   0.5956343      Incl.   12.99293     -0.43332970     -0.40211373
    P   0.81           H   25.9           G   0.15           U   9
    Residuals in seconds of arc
    071007 G96  0.4-  0.3-    071007 G96  0.5+  0.0     071007 B21  0.0   0.1+
    071007 G96  0.5-  0.5-    071007 G96  0.0   0.1+    071007 B21  0.7+  0.2+
    071007 G96  0.1+  0.0     071007 G96  0.1-  0.0     071007 024  0.1+  0.7+
    071007 G96  0.3-  0.1+    071007 G96  0.1-  0.1+    071007 024  0.6-  0.2+
    071007 G96  0.5+  0.0     071007 G96  1.3-  0.0     071007 024  0.3+  0.5-
    071007 G96  0.3-  0.2+    071007 G96  0.0   0.2+    071008 651  0.5-  0.6+
    071007 G96  0.1+  0.2+    071007 246  0.0   0.8-    071008 651  0.1+  0.1+
    071007 G96  1.0+  0.1+    071007 246  0.5+  1.6-    071008 651  0.5+  0.0
    071007 G96  1.0+  0.3+    071007 B21  1.2-  0.4+
    
    Ephemeris:
    2007 TL5                 a,e,i = 0.87, 0.60, 13                  q = 0.3511
    Date    TT    R. A. (2000) Decl.     Delta      r     Elong.  Phase     V
    2007 10 07    00 47.55   +10 33.7    0.0594   1.059   174.7     5.0    20.3
    2007 10 08    00 27.22   +10 14.4    0.0684   1.067   172.2     7.3    20.7
    2007 10 09    00 11.74   +09 56.2    0.0778   1.075   168.3    10.8    21.2
    2007 10 10    23 59.69   +09 40.0    0.0875   1.083   164.8    14.0    21.6
    2007 10 11    23 50.13   +09 25.8    0.0974   1.091   161.7    16.7    21.9
    2007 10 12    23 42.40   +09 13.5    0.108    1.099   158.9    19.0    22.2
    2007 10 13    23 36.07   +09 02.8    0.118    1.107   156.5    21.0    22.5
    2007 10 14    23 30.83   +08 53.4    0.128    1.115   154.4    22.8    22.8
    2007 10 15    23 26.44   +08 45.3    0.139    1.122   152.4    24.3    23.0
    2007 10 16    23 22.74   +08 38.2    0.149    1.129   150.6    25.7    23.2
    2007 10 17    23 19.60   +08 32.0    0.160    1.137   148.9    27.0    23.4
    
    Gareth V. Williams           (C) Copyright 2007 MPC           M.P.E.C. 2007-T27
    

    Read MPEC 2007-T26 Read MPEC 2007-T28


    MPEC number:

    Enter an MPEC number in one of the following forms:

    • 1997-B01 (the full form)
    • J97B01 (the packed version of the full form)
    • B01 (the abbreviated form)